Weather History for Paducah, KY

Change the Weather History Date:

Sunday, July 8, 2012

  Actual Average Record
Temperature  
Mean Temperature 86 °F 79 °F  
Max Temperature 99 °F 89 °F 102 °F (1988)
Min Temperature 73 °F 69 °F 58 °F (1960)
Degree Days  
Heating Degree Days 0 0  
Month to date heating degree days 0 0  
Since 1 June heating degree days 7 4  
Since 1 July heating degree days 0 0  
Cooling Degree Days 21 14  
Month to date cooling degree days 189 112  
Year to date cooling degree days 928 604  
Since 1 June cooling degree days 545 432  
Growing Degree Days 36 (Base 50)    
Moisture  
Dew Point 71 °F    
Average Humidity 63    
Maximum Humidity 87    
Minimum Humidity 39    
Precipitation  
Precipitation 0.67 in 0.16 in 1.88 in (1997)
Month to date precipitation 0.94 1.18  
Year to date precipitation 12.53 26.46  
Snow  
Snow 0.00 in 0.00 in - ()
Month to date snowfall 0.0 0.0  
Since 1 June snowfall 0.0 0.0  
Since 1 July snowfall 0.0 0.0  
Snow Depth 0.00 in    
Sea Level Pressure  
Sea Level Pressure 29.94 in    
Wind  
Wind Speed 8 mph (SW)    
Max Wind Speed 31 mph    
Max Gust Speed 43 mph    
Visibility 9 miles    
Events Rain , Thunderstorm    
T = Trace of Precipitation, MM = Missing Value Source: NWS Daily Summary

Daily Weather History Graph

Daily Weather History Graph

Search for Another Location

Airport:

Trip Planner

Search our weather history database for the weather conditions in past years. The results will help you decide how hot, cold, wet, or windy it might be!

Date:

Astronomy

Jul. 08, 2012 Rise Set
Actual Time 5:42 AM CDT 8:17 PM CDT
Civil Twilight 5:12 AM CDT 8:47 PM CDT
Nautical Twilight 4:34 AM CDT 9:25 PM CDT
Astronomical Twilight 3:52 AM CDT 10:07 PM CDT
Moon 11:14 PM CDT (7/8) 11:01 AM CDT (7/8)
Length of Visible Light 15h 35m
Length of Day
14h 34m
Waning Gibbous, 73% of the Moon is Illuminated
Jul 8
Waning Gibbous
Jul 10
Last Quarter
Jul 18
New
Jul 26
First Quarter
Aug 1
Full

Hourly Weather History & Observations

Time (CDT) Temp. Heat Index Dew Point Humidity Pressure Visibility Wind Dir Wind Speed Gust Speed Precip Events Conditions
12:53 AM 82.0 °F 85.5 °F 69.1 °F 65% 29.93 in 10.0 mi SW 5.8 mph - N/A   Partly Cloudy
1:53 AM 80.1 °F 82.7 °F 68.0 °F 67% 29.93 in 10.0 mi Calm Calm - N/A   Clear
2:53 AM 80.1 °F 82.7 °F 68.0 °F 67% 29.93 in 10.0 mi SW 4.6 mph - N/A   Clear
3:53 AM 79.0 °F - 70.0 °F 74% 29.91 in 10.0 mi WSW 5.8 mph - N/A   Clear
4:53 AM 80.1 °F 84.2 °F 73.0 °F 79% 29.94 in 9.0 mi South 10.4 mph - N/A   Scattered Clouds
5:53 AM 80.1 °F 83.8 °F 72.0 °F 76% 29.95 in 10.0 mi South 9.2 mph 17.3 mph N/A   Clear
6:53 AM 81.0 °F 85.8 °F 73.0 °F 77% 29.95 in 10.0 mi South 8.1 mph - 0.00 in Rain Light Rain
7:15 AM 80.6 °F 85.4 °F 73.4 °F 79% 29.96 in 8.0 mi WSW 10.4 mph - 0.00 in Rain , Thunderstorm Light Thunderstorms and Rain
7:20 AM 80.6 °F 85.4 °F 73.4 °F 79% 29.96 in 9.0 mi WSW 11.5 mph - 0.00 in Thunderstorm Thunderstorm
7:48 AM 82.4 °F 85.4 °F 68.0 °F 62% 29.95 in 10.0 mi SW 8.1 mph - 0.00 in   Clear
7:53 AM 82.9 °F 85.4 °F 66.9 °F 58% 29.94 in 10.0 mi WSW 12.7 mph - 0.00 in   Clear
8:53 AM 84.0 °F 90.2 °F 73.0 °F 69% 29.97 in 10.0 mi Calm Calm - N/A   Partly Cloudy
9:53 AM 86.0 °F 93.0 °F 73.0 °F 65% 29.98 in 10.0 mi SSW 8.1 mph - N/A   Clear
10:53 AM 91.0 °F 98.2 °F 72.0 °F 53% 29.97 in 10.0 mi WSW 11.5 mph - N/A   Partly Cloudy
11:53 AM 95.0 °F 103.2 °F 72.0 °F 47% 29.96 in 10.0 mi WSW 6.9 mph - N/A   Clear
12:53 PM 95.0 °F 104.5 °F 73.0 °F 49% 29.95 in 10.0 mi SW 10.4 mph - N/A   Clear
1:53 PM 95.0 °F 103.2 °F 72.0 °F 47% 29.94 in 10.0 mi SW 9.2 mph - N/A   Clear
2:53 PM 98.1 °F 105.0 °F 70.0 °F 40% 29.90 in 10.0 mi WNW 6.9 mph 17.3 mph N/A   Clear
3:53 PM 98.1 °F 105.0 °F 70.0 °F 40% 29.85 in 10.0 mi Variable 6.9 mph 17.3 mph N/A   Clear
4:53 PM 97.0 °F 102.8 °F 69.1 °F 40% 29.85 in 10.0 mi SSW 9.2 mph - N/A   Clear
5:53 PM 96.1 °F 102.9 °F 70.0 °F 43% 29.86 in 10.0 mi WNW 10.4 mph - N/A   Clear
6:53 PM 91.9 °F 98.4 °F 71.1 °F 50% 29.88 in 10.0 mi NNW 18.4 mph 25.3 mph N/A   Mostly Cloudy
7:13 PM 86.0 °F 90.4 °F 69.8 °F 58% 29.91 in 10.0 mi NNE 26.5 mph 38.0 mph N/A   Overcast
7:45 PM 73.4 °F - 71.6 °F 94% 29.96 in 1.8 mi ENE 25.3 mph 39.1 mph 0.14 in Rain Heavy Rain
7:53 PM 73.9 °F - 72.0 °F 93% 29.94 in 2.0 mi NE 18.4 mph 36.8 mph 0.27 in Rain Heavy Rain
8:04 PM 73.4 °F - 71.6 °F 94% 29.93 in 4.0 mi NE 21.9 mph 32.2 mph 0.06 in Rain Rain
8:53 PM 73.9 °F - 71.1 °F 91% 30.00 in 10.0 mi West 8.1 mph - 0.07 in Rain Light Rain
9:10 PM 75.2 °F - 69.8 °F 83% 30.00 in 9.0 mi WNW 5.8 mph - 0.00 in Rain , Thunderstorm Light Thunderstorms and Rain
9:53 PM 73.0 °F - 71.1 °F 93% 29.99 in 4.0 mi SSW 3.5 mph - 0.04 in Rain , Thunderstorm Light Thunderstorms and Rain
10:53 PM 73.0 °F - 70.0 °F 90% 29.97 in 6.0 mi South 5.8 mph - 0.17 in Rain Rain
11:53 PM 73.0 °F - 70.0 °F 90% 29.97 in 7.0 mi South 8.1 mph - 0.11 in Rain Light Rain